Погода в Трошкове

Россия / Свердловская область     57°19′17″N   64°24′27″E
темп.,
°C
ветер,
м/с
пор.,
м/с
влажн.,
%
обл.,
%
осадки,
мм/ч
давл.,
гПа
погр.,
м
8 мая, сб
сб823:00+12ююз38535 0.0 1018126
02:00+11юз36579 0.0 101992
05:00+10юз355910 0.0 101973
08:00+15ююз244321 0.0 1019270
11:00+21ююз232995 0.0 10181857
14:00+23ююз2224100 0.0 10172746
17:00+22юв1124100 0.0 10162784
20:00+18в1139100 0.0 101611
9 мая, вс
вс923:00+14юз2246100 0.0 101634
02:00+14ссз1147100 0.0 101610
05:00+12в2253100 0.0 101621
08:00+17всв2443100 0.0 1017231
11:00+21вюв3529100 0.0 10171376
14:00+23вюв4623100 0.0 10173038
17:00+21всв2431100 0.0 1017783
20:00+18всв4844100 0.0 1019216
10 мая, пн
пн1023:00+14всв3763100 0.3 1020159
02:00+12всв277597 0.1 1021135
05:00+11всв287297 0.1 1023154
08:00+14в364998 0.0 1024439
11:00+18в4533100 0.0 10241295
14:00+20в342883 0.0 10241743
17:00+21в332784 0.0 10231928
20:00+16юв12415 0.0 102312
11 мая, вт
вт1123:00+13вюв11484 0.0 102410
02:00+11юз225221 0.0 102414
05:00+10юз2255100 0.0 102420
08:00+15юз2443100 0.0 1023243
11:00+18з4636100 0.0 1023954
14:00+14зсз2380100 0.5 1023303
17:00+14ссз478033 1.1 1023683
20:00+13с487587 0.3 1024715
12 мая, ср
ср1223:00+9ссз411860 0.3 1025566
02:00+7ссз411820 0.0 1025615
05:00+5ссз514740 0.0 1026562
08:00+10с613476 0.0 1027825
11:00+15с6935100 0.0 10261566
14:00+17с5732100 0.0 10251954
17:00+17с4634100 0.0 10251920
20:00+14ссв364549 0.0 1026151